Regional Weather Roundup
Issued by NWS

Home | Current Version | Previous Version | Text Only | Print | Product List | Glossary Off
Versions: 1 2 3 4 5 6 7 8 9 10 11 12 13 14 15 16 17 18 19 20 21 22 23 24 25 26 27

000
ASUS45 KCYS 230710
RWRWY

WYOMING REGIONAL WEATHER ROUNDUP
NATIONAL WEATHER SERVICE CHEYENNE WY
100 AM MDT TUE AUG 23 2016

NOTE:  "FAIR" INDICATES FEW OR NO CLOUDS BELOW 12,000 FEET
WITH NO SIGNIFICANT WEATHER AND/OR OBSTRUCTIONS TO VISIBILITY.

WYZ001-230800-
YELLOWSTONE NATIONAL PARK

CITY           SKY/WX    TMP DP  RH WIND       PRES   REMARKS
LK YELLOWSTONE   N/A     42  17  36 CALM      30.14R
W YELLOWSTONE  NOT AVBL

$$
WYZ002>013-054>058-071-098>099-230800-
NORTHERN WYOMING

CITY           SKY/WX    TMP DP  RH WIND       PRES   REMARKS
JACKSON        FAIR      55  12  18 S5        30.08R
CODY           FAIR      66  27  22 W12       29.95R
GREYBULL       FAIR      69  28  21 NW13      29.80R
WORLAND        FAIR      58  24  27 SW5       29.83S
SHERIDAN       FAIR      70  29  21 NW20G26   29.87R
BUFFALO        FAIR      69  28  21 N31G47    29.87R
GILLETTE       FAIR      64  39  39 S10       29.75S
HULETT         FAIR      72  39  30 SE10      29.74F
NEWCASTLE      FAIR      70  28  21 E10       29.79S

$$
WYZ014>020-022>026-101>103-230800-
CENTRAL WYOMING

CITY           SKY/WX    TMP DP  RH WIND       PRES   REMARKS
BIG PINEY      FAIR      44  13  28 N5        30.15R
PINEDALE       FAIR      39  23  52 NW6       30.16S WCI  35
DUBOIS         FAIR      54   7  15 NW14      30.09R
LANDER         FAIR      69  11  10 W7        29.96R
RIVERTON       FAIR      67   8  10 W15       29.95S
CASPER         FAIR      61  35  37 W12       29.94S
DOUGLAS        FAIR      75  35  23 W16       29.87F

$$
WYZ021-027>030-104>119-230800-
SOUTHERN WYOMING

CITY           SKY/WX    TMP DP  RH WIND       PRES   REMARKS
EVANSTON       FAIR      60  20  21 S7        30.19R
FORT BRIDGER   FAIR      60  14  16 W8        30.20R
ROCK SPRINGS   FAIR      60  10  14 S7        30.13R
DIXON          FAIR      56  36  47 CALM      30.18R
RAWLINS        FAIR      65  33  30 W18       30.11R
SARATOGA       FAIR      57  37  47 SE9       30.15R
LARAMIE        FAIR      50  38  63 S3        30.11F
CHEYENNE       FAIR      65  36  34 W15       30.00S
TORRINGTON     FAIR      63  44  50 E8        29.84S
PINE BLUFFS    FAIR      59  39  47 SW5       29.94S

$$




USA.gov is the U.S. government's official web portal to all federal, state and local government web resources and services.